Theta_e
337 327 330 330 329 326 324 326 333 337 340 340 339 338 337 336 336 334 331 331 334 332 334 333 335 336 337 340 335 339 339 338 338 338 337 335 334 333 332 332 333 333 332
331 328 329 327 324 322 323 324 330 334 339 340 340 339 339 337 336 335 332 330 331 332 333 334 336 336 336 335 337 335 336 335 336 335 334 334 333 332 333 334 333 333 332
326 326 325 324 323 321 320 322 327 330 337 340 340 340 340 339 336 335 334 331 332 332 334 335 336 335 335 334 334 334 333 331 332 333 334 333 332 332 335 334 333 332 332
325 326 325 322 322 322 322 322 324 329 334 338 339 340 339 339 338 335 335 333 333 333 335 334 336 337 334 332 332 331 330 331 333 333 333 333 334 335 335 333 333 333 332
325 325 322 323 321 321 321 321 324 329 333 336 338 339 339 339 338 336 336 335 333 334 336 335 335 334 331 331 331 330 331 332 333 334 333 333 334 334 334 333 333 332 331
323 322 323 322 322 321 321 320 323 327 331 334 337 338 338 338 338 337 336 336 334 335 335 333 332 332 331 331 330 330 332 332 333 335 333 333 334 333 332 332 332 331 331
322 324 322 322 322 320 319 320 322 327 330 332 334 336 336 337 337 337 336 336 335 334 334 331 332 332 330 330 329 332 333 332 333 334 333 333 332 332 332 332 331 331 331
325 326 323 322 320 319 319 319 321 326 329 331 332 332 335 338 338 337 336 336 335 334 334 332 332 332 327 328 328 331 332 332 333 333 333 332 332 332 332 332 331 331 331
333 332 326 322 320 319 318 318 320 324 328 330 331 333 335 337 338 337 336 336 335 334 334 332 332 331 328 325 329 330 330 332 333 333 333 332 332 332 332 332 330 329 330
333 333 328 322 321 320 319 319 318 320 325 329 331 333 334 336 337 337 337 336 336 334 333 332 328 327 326 323 329 329 329 331 332 332 332 332 332 332 331 330 328 327 328
336 331 329 324 322 321 320 320 319 319 322 327 330 331 333 334 335 336 337 336 336 333 333 333 328 326 328 322 328 328 328 328 331 332 331 332 332 331 330 329 328 327 327
338 339 335 329 323 322 322 321 320 320 319 323 329 331 331 332 333 334 335 335 335 333 333 331 327 327 326 324 328 326 329 328 329 331 330 330 331 330 329 329 328 327 326
339 340 338 335 329 324 322 322 322 321 320 321 325 330 331 331 331 332 334 334 334 332 331 330 329 328 326 323 325 326 328 328 328 328 329 328 328 328 327 325 325 325 321
341 340 340 339 331 327 325 323 323 322 321 320 323 330 331 331 330 330 332 332 332 332 330 329 326 327 328 324 326 326 326 328 328 329 328 328 327 326 325 320 321 321 315
325 340 341 340 337 328 327 326 324 324 324 323 324 328 332 334 333 332 332 331 331 331 331 328 327 327 327 326 324 326 326 329 328 328 327 327 326 324 322 318 320 317 311
321 329 342 341 339 337 330 328 327 326 328 328 325 327 330 334 334 334 332 331 331 331 330 329 329 328 327 326 326 325 327 327 328 328 326 326 324 323 320 318 323 319 311
319 319 338 341 340 339 335 329 339 333 332 329 325 324 326 330 332 333 332 330 330 330 331 331 329 328 327 326 326 325 326 326 326 328 328 325 323 321 319 321 323 320 317
318 318 324 339 340 339 339 331 338 339 333 327 326 325 324 328 332 332 332 330 330 331 330 330 328 327 326 326 325 326 326 326 327 326 324 323 321 319 319 320 319 319 319
319 319 322 334 339 339 340 336 331 338 332 327 327 325 322 328 331 331 333 331 330 331 330 330 329 327 326 325 326 326 326 326 325 323 322 322 320 317 318 318 318 318 318
318 318 319 329 337 339 340 337 333 332 332 329 327 322 325 325 329 331 331 331 331 331 330 329 328 327 325 324 326 328 326 324 323 322 321 320 320 316 317 316 319 319 318
319 319 319 327 337 339 340 337 333 333 336 332 327 323 324 325 327 330 330 330 329 330 329 328 327 326 325 325 326 326 325 323 322 321 321 321 321 318 314 317 318 318 316
320 319 321 326 338 338 338 336 334 334 335 332 328 326 330 325 327 327 330 329 328 329 329 328 327 326 325 325 326 325 322 322 321 320 320 320 320 318 318 317 317 317 316
320 320 323 326 338 336 338 337 338 337 335 332 329 325 327 324 327 327 327 326 326 326 328 328 327 326 325 325 325 322 322 321 320 319 320 320 320 320 320 316 317 320 320
320 320 323 327 338 336 338 336 335 334 336 331 328 326 322 326 330 327 326 325 326 326 328 328 328 327 325 326 323 323 322 321 320 321 319 320 320 320 319 319 320 321 320
320 322 327 334 336 334 336 336 335 335 334 330 329 327 324 326 326 326 327 326 327 328 328 327 326 327 324 323 322 323 322 321 320 320 321 321 321 322 321 320 320 320 319
323 332 334 336 334 334 335 336 334 335 332 331 328 326 326 326 326 326 325 325 326 326 327 326 325 327 326 323 323 323 322 321 320 319 319 318 320 320 321 321 321 320 320
Wind_Speed
17 13 15 14 12 10 9 9 11 12 13 14 14 13 11 10 9 9 11 11 11 11 12 14 15 16 16 14 13 11 9 8 9 11 13 16 17 17 17 18 19 21 21
15 16 17 15 12 9 8 9 11 12 14 15 15 13 11 10 9 9 10 11 11 12 13 14 15 16 14 14 13 9 8 8 7 10 14 18 18 18 18 18 20 21 21
13 18 17 13 10 9 8 9 11 12 14 15 15 14 11 9 9 9 9 10 12 12 13 15 15 14 13 11 11 11 9 8 11 13 16 18 20 19 18 21 21 21 21
13 16 15 13 11 9 7 8 9 11 13 14 15 14 12 11 10 10 9 9 11 12 12 14 14 13 12 12 12 11 12 13 14 16 19 20 20 19 20 21 21 20 19
15 15 15 12 9 8 8 7 8 10 12 13 14 14 13 11 10 11 10 10 11 11 11 11 11 11 12 12 12 12 15 17 17 17 17 20 21 19 21 21 20 19 19
16 16 14 11 8 7 7 7 9 10 11 12 13 14 13 12 12 12 12 12 10 11 10 10 9 10 12 12 11 14 17 18 16 17 16 20 21 20 21 20 19 19 18
17 16 14 11 9 8 8 8 9 10 11 11 13 13 13 13 14 13 14 13 13 13 12 14 13 11 9 8 11 15 18 17 17 19 17 20 20 21 21 20 20 19 16
13 16 15 14 12 10 9 9 10 11 11 12 12 12 12 14 15 15 15 15 17 16 16 17 17 17 14 8 11 17 19 15 16 17 17 20 20 22 22 21 20 18 17
19 18 17 16 14 13 12 10 10 11 12 13 13 12 13 14 15 16 16 18 19 18 17 16 14 12 12 13 13 19 16 15 16 16 16 21 21 22 22 21 19 16 15
22 21 19 20 17 15 13 11 11 11 12 13 14 14 14 15 16 17 19 21 20 19 19 18 14 12 9 13 17 19 16 15 15 15 14 22 22 21 21 19 16 13 13
22 23 23 22 22 18 15 13 12 11 12 14 15 15 16 16 17 19 20 20 20 20 20 19 19 18 11 18 19 20 17 15 15 17 16 20 22 20 18 16 14 12 13
26 27 26 25 24 22 19 16 14 13 12 13 15 16 17 18 18 19 20 19 21 21 20 17 17 16 16 20 22 21 19 16 17 19 17 18 17 17 17 15 13 13 15
27 30 27 27 25 25 22 19 16 15 14 14 15 17 18 19 20 21 22 22 24 24 23 20 20 21 17 21 23 24 23 18 20 19 18 15 13 13 13 14 16 16 16
32 33 31 27 28 26 23 22 18 17 15 15 17 18 19 22 22 23 25 25 27 29 27 24 16 22 23 21 23 25 25 21 21 20 16 14 13 12 13 14 16 18 16
28 35 36 29 27 28 27 23 20 19 16 14 15 16 18 21 22 23 24 27 29 31 32 28 18 21 24 23 23 26 29 22 23 22 18 18 16 13 13 14 18 18 17
29 30 40 34 28 26 28 25 22 20 16 14 15 15 18 22 22 21 23 25 28 31 34 32 22 23 23 24 27 28 29 24 23 22 18 18 14 13 13 17 19 19 19
33 31 38 39 33 30 25 28 26 24 21 19 18 16 18 21 22 21 22 24 25 28 31 29 23 23 23 26 23 28 31 27 26 20 21 17 15 13 14 19 20 20 19
33 34 33 42 39 35 30 29 30 29 26 23 19 17 19 21 21 22 23 23 24 26 26 25 26 26 24 27 25 30 32 29 25 23 20 15 11 16 17 18 19 18 19
39 34 31 41 42 40 34 31 33 31 30 26 18 18 19 21 22 22 24 24 25 25 23 25 26 26 25 22 29 31 33 28 29 24 17 12 10 16 19 17 17 17 19
37 43 35 39 43 43 38 32 30 30 25 21 19 18 20 20 21 21 21 23 25 26 25 22 23 24 23 16 25 30 30 30 26 21 16 11 11 15 19 21 20 20 17
38 39 39 38 49 45 39 33 30 32 26 23 21 19 20 17 21 23 22 22 25 25 23 22 21 23 25 25 17 31 29 33 25 19 15 15 15 13 18 20 22 22 19
35 41 36 38 51 45 39 34 31 30 27 21 22 20 21 20 23 25 24 21 22 22 25 25 21 25 27 31 29 30 24 29 25 23 20 18 14 10 13 19 20 16 14
27 42 35 36 49 44 40 35 31 28 25 23 25 22 24 22 24 23 22 23 25 26 27 27 25 27 29 32 29 28 22 16 29 26 23 22 20 18 12 15 18 14 10
25 27 31 42 50 45 38 35 35 37 36 34 27 20 22 24 25 23 23 26 27 30 30 29 29 28 31 39 33 30 23 27 33 23 29 25 20 22 18 16 16 16 13
30 27 32 40 45 38 36 33 29 35 33 29 21 19 16 18 19 21 26 29 31 30 30 29 31 31 37 43 40 39 28 27 36 31 32 32 28 26 24 24 20 18 20
7 31 36 43 41 35 34 30 28 31 31 28 21 22 18 18 19 22 23 25 24 26 29 32 31 34 47 44 46 44 37 33 35 28 24 33 40 36 29 26 21 23 21
Wind_Direction
152 149 161 168 168 171 170 171 166 164 161 158 157 157 157 161 159 159 166 176 181 188 179 171 169 168 157 158 168 165 166 166 146 140 135 136 138 144 139 133 132 127 126
155 155 163 165 167 172 177 176 173 170 168 165 167 165 167 171 175 172 169 171 173 180 172 173 171 170 167 167 174 173 180 179 163 151 144 144 147 145 136 136 134 131 129
160 156 158 158 162 163 171 178 180 177 174 173 173 174 178 182 190 187 180 175 173 180 179 175 176 171 172 175 175 175 179 166 157 160 163 158 150 142 135 141 136 135 132
162 155 154 150 145 153 174 183 187 184 183 182 181 181 185 191 196 197 194 188 180 180 176 178 179 175 174 175 174 166 155 152 155 159 159 152 145 142 140 143 139 137 136
155 152 147 148 152 163 172 184 192 190 188 190 189 188 192 199 200 200 200 199 190 185 173 168 170 175 177 172 164 156 156 157 159 152 158 153 150 148 146 143 143 142 141
152 153 157 156 156 167 178 190 195 195 192 192 194 197 196 199 203 203 206 206 194 183 177 166 168 162 168 166 161 156 157 158 156 157 161 160 152 149 149 149 147 146 146
162 167 166 165 171 179 183 188 193 194 193 194 194 198 199 199 202 204 206 203 190 184 185 168 167 160 160 164 165 161 161 163 167 171 162 164 156 155 153 150 149 150 145
184 182 181 180 182 183 189 192 195 194 195 195 197 195 194 197 200 203 206 201 193 193 189 177 171 162 155 174 178 170 165 165 166 163 166 168 161 157 153 151 151 148 146
203 204 195 193 189 189 193 197 201 199 197 196 198 194 193 191 197 199 202 203 201 199 194 179 168 165 165 169 183 178 169 175 170 169 171 164 162 157 156 154 155 154 155
211 216 205 201 199 196 193 197 207 203 202 200 200 199 200 196 198 200 203 208 207 200 194 191 195 214 216 177 183 181 179 179 173 169 183 164 163 160 161 160 162 163 171
217 224 216 207 207 203 199 200 207 207 207 207 208 206 206 205 204 208 211 210 208 200 197 210 220 224 198 178 182 182 188 187 184 174 171 170 170 168 166 170 175 183 188
212 225 230 219 210 209 205 205 209 212 218 216 214 217 217 215 213 218 216 212 207 198 196 198 200 189 192 186 180 187 189 190 185 174 180 182 186 183 181 189 202 205 202
220 233 241 234 219 213 209 207 212 214 219 222 220 219 220 222 219 220 217 211 204 197 190 186 186 189 195 199 190 189 191 194 196 188 183 182 188 208 217 224 218 207 205
228 232 237 238 231 223 211 209 211 218 218 224 224 219 219 226 227 225 223 220 209 200 198 195 219 219 216 211 197 192 195 197 200 189 192 202 208 228 237 223 206 203 207
236 230 237 232 227 230 223 212 209 216 217 214 211 214 220 225 231 231 230 225 220 209 209 211 232 217 204 200 207 199 198 195 194 200 202 202 215 231 234 204 195 199 209
233 239 227 232 233 225 222 212 211 222 220 220 219 220 228 232 231 233 227 228 227 226 215 218 225 213 210 216 213 205 200 203 204 205 207 202 213 228 222 194 183 186 198
239 248 228 224 229 230 217 214 208 215 220 223 223 223 227 230 228 228 227 231 232 230 224 230 213 211 211 209 224 205 205 204 206 210 203 204 208 215 211 186 181 184 185
246 243 239 223 220 226 215 222 214 219 221 223 221 226 228 230 229 224 221 226 227 228 228 219 209 210 218 232 228 206 204 204 207 192 194 196 211 217 198 195 189 183 183
240 240 241 223 217 221 218 220 219 221 229 229 217 226 228 224 227 223 222 222 227 228 221 217 216 219 228 237 220 208 193 203 184 180 184 204 220 222 200 198 185 189 190
238 240 241 227 218 216 216 215 218 222 221 224 217 221 217 222 220 216 214 215 221 223 223 219 214 217 220 231 211 207 185 178 180 186 204 202 221 220 207 194 190 200 212
235 230 236 221 212 209 206 206 216 217 216 217 215 218 211 212 214 219 219 216 220 220 217 215 217 212 215 205 208 179 188 180 182 184 195 204 226 215 205 200 201 206 217
239 233 220 218 210 207 208 209 219 222 221 222 215 215 210 217 216 220 220 217 222 220 215 217 218 210 221 209 200 183 173 168 184 193 197 206 221 199 202 210 211 216 230
244 229 213 212 207 205 204 202 205 216 221 220 221 223 211 214 212 214 207 219 228 228 225 224 223 216 212 205 200 172 156 168 173 183 198 205 216 209 212 212 207 214 236
243 233 214 214 201 202 203 205 210 217 218 222 221 223 215 209 215 212 211 223 230 232 230 229 232 225 210 192 187 181 185 183 173 185 196 202 209 208 215 218 220 218 224
242 223 212 200 196 200 206 211 217 217 224 225 216 222 221 209 211 216 218 224 229 229 227 225 229 218 205 195 191 197 191 197 188 185 196 201 202 207 212 222 226 226 236
223 200 194 191 195 203 212 212 221 215 215 218 215 210 204 202 206 212 215 220 225 230 229 228 228 224 209 211 209 198 191 191 194 199 203 208 209 211 208 211 219 226 236